Weather History for HESN - April, 2013

Change the Weather History Date:

Thursday, April 18, 2013

  Actual Average Record
Temperature  
Mean Temperature 72 °F -  
Max Temperature 87 °F 97 °F 108 °F (2014)
Min Temperature 57 °F 72 °F 57 °F (2013)
Cooling Degree Days 7    
Growing Degree Days 22 (Base 50)    
Moisture  
Dew Point 34 °F    
Average Humidity 23    
Maximum Humidity 41    
Minimum Humidity 8    
Precipitation  
Precipitation 0.00 in 0.00 in - ()
Sea Level Pressure  
Sea Level Pressure 29.92 in    
Wind  
Wind Speed 6 mph ()    
Max Wind Speed 12 mph    
Max Gust Speed -    
Visibility 6.0 miles    
Events      
Averages and records for this station are not official NWS values.
T = Trace of Precipitation, MM = Missing Value Source: Averaged Metar Reports

Daily Weather History Graph

Daily Weather History Graph

Search for Another Location

Airport or City:

Trip Planner

Search our weather history database for the weather conditions in past years. The results will help you decide how hot, cold, wet, or windy it might be!

Date:

Astronomy

Apr. 18, 2013 Rise Set
Actual Time 5:24 AM EET 6:11 PM EET
Civil Twilight 5:01 AM EET 6:34 PM EET
Nautical Twilight 4:34 AM EET 7:02 PM EET
Astronomical Twilight 4:06 AM EET 7:30 PM EET
Moon 11:25 AM EET (4/18) 12:03 AM EET (4/18)
Length of Visible Light 13h 33m
Length of Day
12h 46m
Waxing Crescent, 49% of the Moon is Illuminated
Apr 18
Waxing Crescent
Apr 18
First Quarter
Apr 25
Full
May 2
Last Quarter
May 10
New

Hourly Weather History & Observations

Time (EET) Temp. Dew Point Humidity Pressure Visibility Wind Dir Wind Speed Gust Speed Precip Events Conditions
12:00 AM 69.8 °F 39.2 °F 33% 29.92 in - North 8.1 mph - N/A   Clear
1:00 AM 69.8 °F 39.2 °F 33% 29.92 in - North 10.4 mph - N/A   Clear
2:00 AM 67 °F 38 °F 23% 29.91 in 6 mi NNW 5.8 mph - -  
2:00 AM 68.0 °F 37.4 °F 33% 29.92 in - NNW 5.8 mph - N/A   Clear
3:00 AM 66.2 °F 35.6 °F 32% 29.92 in - NW 6.9 mph - N/A   Clear
4:00 AM 66.2 °F 35.6 °F 32% 29.92 in - NNW 3.5 mph - N/A   Clear
5:00 AM 64.4 °F 33.8 °F 32% 29.92 in - North 3.5 mph - N/A   Clear
6:00 AM 64.4 °F 33.8 °F 32% 29.95 in - NNW 3.5 mph - N/A   Clear
7:00 AM 57.2 °F 33.8 °F 41% 29.95 in - NNW 4.6 mph - N/A   Clear
8:00 AM 69.8 °F 35.6 °F 28% 29.98 in - North 9.2 mph - N/A   Clear
9:00 AM 73.4 °F 35.6 °F 25% 29.98 in - North 11.5 mph - N/A   Clear
10:00 AM 77.0 °F 35.6 °F 22% 29.98 in - North 10.4 mph - N/A   Clear
11:00 AM 77.0 °F 33.8 °F 21% 29.95 in - North 9.2 mph - N/A   Clear
12:00 PM 80.6 °F 33.8 °F 18% 29.95 in - North 8.1 mph - N/A   Clear
1:00 PM 82.4 °F 30.2 °F 15% 29.92 in - North 9.2 mph - N/A   Clear
2:00 PM 84 °F 31 °F 8% 29.88 in 6 mi North 8.1 mph - -   Clear
3:00 PM 86.0 °F 30.2 °F 13% 29.89 in - North 9.2 mph - N/A   Clear
4:00 PM 86.0 °F 30.2 °F 13% 29.86 in - NNW 6.9 mph - N/A   Clear
5:00 PM 86.0 °F 30.2 °F 13% 29.86 in - North 8.1 mph - N/A   Clear
6:00 PM 84.2 °F 30.2 °F 14% 29.86 in - North 9.2 mph - N/A   Clear
7:00 PM 82.4 °F 30.2 °F 15% 29.89 in - North 6.9 mph - N/A   Clear
8:00 PM 80 °F 31 °F 9% 29.88 in 6 mi North 3.5 mph - -  
8:00 PM 78.8 °F 30.2 °F 17% 29.89 in - North 3.5 mph - N/A   Clear
9:00 PM 77.0 °F 33.8 °F 21% 29.92 in - North 4.6 mph - N/A   Clear
10:00 PM 75.2 °F 33.8 °F 22% 29.95 in - North 6.9 mph - N/A   Clear
11:00 PM 73.4 °F 33.8 °F 23% 29.95 in - North 4.6 mph - N/A   Clear